www.pogodaiklimat.ru

Погода и климат >> Архив погоды >> Россия >> Кемеровская область >> Центральный Рудник


ПОГОДА в Центральном Руднике

  • Прогноз погоды в Центральном Руднике
  • Монитор погоды в Центральном Руднике

АРХИВ ПОГОДЫ в Центральном Руднике

Время (UTC), дата Ветер
(напр.,м/с)
 
Видим.   Явления Облачность Т
(С)
Тd
(С)
f
(%)
Тe
(С)
Тes
(С)
Комфортность P
(гПа)
Po
(гПа)
Тmin
(С)
Tmax
(С)
R
(мм)
R24
(мм)
S
(см)
21 15.07 СВ 1 50 км 6/3 600 м
[Cb cap Ac lent Ci fib]
+10.2 +8.9 92 +10 +10 1008.0 949.8
00 16.07 штиль 0 50 км туман на расстоянии 8/3 1000 м
[Sc Ac lent Ci fib]
+9.6 +8.6 93 +9 +10 1007.3 949.0 +8.6
03 16.07 штиль 0 50 км 10/5 1000 м
[Sc Ac As Ci fib]
+15.7 +12.1 79 +16 +19 1005.6 948.6
06 16.07 СВ 1 20 км слаб. ливневой дождь 10/6 600 м
[Cb cap Ac und]
+14.1 +12.4 89 +14 +16 1005.2 948.0
09 16.07 СЗ 1 50 км гроза без осадков {ливн. осадки} 9/5 600 м
[Cb cap Ac As Ci fib]
+18.8 +11.3 62 +21 +24 комфорт 1004.3 948.0
12 16.07 штиль 0 50 км {гроза, ливн. осадки} 9/4 600 м
[Cb cap Ac As Ci fib]
+18.7 +11.1 61 +19 +20 1004.6 948.2 +19.6 4
15 16.07 В 1 50 км 10/4 600 м
[Cb cap Ac trans Ci fib]
+15.2 +12.1 82 +16 +16 1005.7 948.6
18 16.07 штиль 0 50 км туман местами 10/4 600 м
[Cb cap Ac trans Ci fib]
+11.6 +10.4 92 +11 +11 1005.8 948.0
21 16.07 В 1 4000 м дымка 10/3 600 м
[Cb cap Ac trans Ci fib]
+10.6 +9.4 92 +10 +10 1005.9 947.9
00 17.07 В 1 4000 м дымка 8/4 600 м
[Cb cap Ac As Ci fib]
+13.4 +10.3 81 +14 +14 1005.2 947.8 +9.9
03 17.07 Ю 3 50 км 9/4 600 м
[Cb cap Ac As Ci fib]
+19.9 +11.4 58 +22 +24 комфорт 1004.1 948.0
06 17.07 Ю 3 50 км 9/5 600 м
[Cb cap Ac As Ci sp]
+19.3 +12.0 63 +21 +25 комфорт 1004.3 948.1
09 17.07 Ю 3 50 км 10/5 600 м
[Cb cap Ac As Ci fib]
+17.4 +12.3 72 +17 +20 1005.5 948.9
12 17.07 Ю 2 50 км {морось} 9/8 400 м
[Cb cap Ac As Ci fib]
+16.4 +13.5 83 +17 +17 1005.9 949.1 +20.5 0.1
15 17.07 ЮВ 1 50 км 9/6 600 м
[Cb cap Ac As Ci fib]
+15.5 +12.8 84 +16 +16 1006.5 949.5
18 17.07 СВ 1 50 км 9/5 600 м
[Cb cap Ac As Ci fib]
+13.9 +12.3 90 +14 +14 1006.2 948.8
21 17.07 ЮВ 1 50 км 10/6 600 м
[Cb cap Ac und]
+14.1 +12.5 90 +14 +14 1005.2 948.0
00 18.07 ЮВ 1 50 км 6/4 600 м
[Cb cap Ac As Ci fib]
+15.9 +12.8 82 +17 +18 1004.8 948.0 +12.8
03 18.07 Ю 3 50 км 10/5 600 м
[Cb cap Ac und]
+18.4 +13.4 73 +19 +20 1004.1 947.8
06 18.07 Ю 1 20 км слаб. ливневой дождь 10/6 600 м
[Cb cap Ac und]
+16.3 +14.9 91 +17 +19 1004.9 948.2
09 18.07 ЮЗ 2 50 км 10/6 600 м
[Cb cap Ac und]
+19.4 +14.8 75 +22 +23 комфорт 1003.8 947.7
12 18.07 Ю 3 50 км 8/4 600 м
[Cb calv Ac As Ci fib]
+20.2 +13.1 64 +23 +23 комфорт 1003.6 947.6 +21.7 2
15 18.07 ЮЗ 1 50 км 8/4 600 м
[Cb calv Ac As Ci fib]
+16.2 +13.5 84 +17 +17 1005.5 948.7
18 18.07 Ю 1 50 км {ливн. осадки} 9/5 600 м
[Cb cap Ac trans Ci fib]
+14.9 +13.3 90 +15 +15 1006.2 949.0
21 18.07 ЮВ 1 50 км 9/4 600 м
[Cb cap Ac As Ci fib]
+14.1 +12.7 91 +14 +14 1006.0 948.7
00 19.07 Ю 1 50 км 10/6 600 м
[Cb cap Ac und]
+14.9 +13.8 93 +15 +16 1006.3 949.2 +13.5 0.3
03 19.07 ЮЗ 2 50 км 9/5 600 м
[Cb cap Ac As]
+17.8 +13.6 76 +18 +20 1005.8 949.3
06 19.07 Ю 1 50 км 9/4 600 м
[Cb cap Ac trans Ci fib]
+19.9 +12.7 63 +23 +29 комфорт 1005.4 949.3
09 19.07 штиль 0 50 км в посл. час ливневой дождь 9/4 600 м
[Cb cap Ac trans Ci fib]
+19.0 +14.3 74 +20 +25 1005.6 949.3
12 19.07 Ю 2 50 км {ливн. осадки} 9/5 600 м
[Cb cap Ac As Ci fib]
+18.5 +14.2 76 +20 +20 1006.3 949.9 +21.9 0.4
15 19.07 В 1 50 км в посл. час ливневой дождь 10/6 600 м
[Cb cap Ac und]
+15.8 +14.6 93 +16 +16 1007.5 950.5
18 19.07 В 1 50 км туман на расстоянии {ливн. осадки} 10/5 600 м
[Cb cap Ac und]
+13.9 +12.9 94 +14 +14 1007.9 950.5
21 19.07 штиль 0 50 км туман на расстоянии 9/5 600 м
[Cb cap Ac As]
+13.6 +12.6 94 +13 +13 1007.6 950.1
00 20.07 штиль 0 50 км туман на расстоянии {ливн. осадки} 10/6 600 м
[Cb cap Ac und]
+14.6 +13.7 94 +14 +14 1006.9 949.7 +13.0 3
03 20.07 С 1 4000 м в посл. час ливневой дождь 10/10 360 м
[St]
+16.6 +15.5 93 +17 +17 1006.2 949.5
06 20.07 СВ 3 50 км {ливн. осадки} 6/4 600 м
[Cb cap Ac trans Ci fib]
+19.6 +11.3 59 +21 +27 комфорт 1006.1 949.9
09 20.07 С 3 50 км 8/4 600 м
[Cb cap Ac trans Ci fib]
+20.6 +10.0 51 +23 +26 комфорт 1006.4 950.3
12 20.07 СВ 2 50 км 10/4 600 м
[Cb cap Ac As Ci fib]
+18.5 +9.6 56 +19 +20 1007.3 950.7 +20.9 0.7
15 20.07 СВ 1 50 км 9/4 600 м
[Cb cap Ac trans Ci fib]
+14.0 +9.0 72 +14 +14 1008.6 951.1
18 20.07 СВ 1 50 км 8/3 600 м
[Cb cap Ac trans Ci fib]
+9.5 +7.3 86 +9 +9 1008.9 950.5
21 20.07 С 1 50 км 6/0
[Ac lent Ci fib]
+7.3 +6.1 92 +6 +6 1008.1 949.3
00 21.07 СЗ 1 4000 м дымка 9/3 1000 м
[Sc Ac trans Ci fib]
+6.6 +5.6 93 +5 +6 1008.3 949.3 +5.4
03 21.07 ЮЗ 1 4000 м дымка 10/3 1000 м
[Sc Ac As Ci fib]
+11.8 +9.2 84 +12 +15 1007.3 949.5
06 21.07 С 2 10 км дым 9/4 1000 м
[Sc Ac As Ci fib]
+15.3 +6.7 56 +15 +20 1006.5 949.3
09 21.07 СЗ 2 10 км дым 9/5 600 м
[Cb calv Ac As]
+16.5 +6.7 52 +17 +19 1006.4 949.5
12 21.07 З 1 10 км дым 9/4 600 м
[Cb calv Ac As]
+16.3 +8.1 58 +17 +18 1006.9 949.9 +17.4
15 21.07 ЮВ 2 10 км дым 10/5 600 м
[Cb cap Ac As Ci fib]
+11.4 +8.0 80 +10 +10 1007.6 949.7
18 21.07 Ю 2 10 км дым 10/5 600 м
[Cb cap Ac und]
+9.9 +8.0 88 +8 +8 1006.5 948.3
21 21.07 Ю 2 10 км дым 10/6 600 м
[Cb cap Ac und]
+11.1 +7.6 79 +10 +10 1005.0 947.1
00 22.07 Ю 1 10 км дым 10/10 400 м
[St]
+11.1 +7.7 80 +11 +11 1005.0 947.1 +9.4
03 22.07 Ю 1 10 км дым 9/5 1000 м
[Sc Ac As]
+12.0 +8.2 78 +12 +14 1004.1 946.5
06 22.07 штиль 0 10 км дым {ливн. осадки} 10/6 600 м
[Cb cap Ac und]
+13.5 +9.4 76 +13 +16 1003.5 946.2
09 22.07 З 1 10 км дым 9/4 600 м
[Cb calv Ac As]
+13.3 +9.7 79 +14 +17 1004.0 946.7
12 22.07 СЗ 1 10 км дым 9/5 600 м
[Cb calv Ac As Ci fib]
+14.0 +9.7 75 +14 +15 1004.1 946.9 +14.6 0.1
15 22.07 СВ 1 10 км дым 9/5 600 м
[Cb calv Ac As]
+9.7 +8.2 90 +9 +9 1005.3 947.1
18 22.07 СВ 1 10 км дым 9/4 1000 м
[Sc Ac As]
+6.2 +5.0 92 +5 +5 1005.4 946.4

 

Местоположение метеостанции Центральный Рудник (Кемеровская область, Россия): широта 55.20 долгота 87.65 высота над уровнем моря 498 м.

В архиве по умолчанию представлена погода в Центральном Руднике за последнюю неделю. Архивные данные за месяц целиком и за предыдущие месяцы, начиная с января 2011 года, Вы можете получить, выбрав интересующий диапазон дат из раскрывающегося списка и нажав кнопку "Ввод!".


*Определитесь, кто Вы:
робот инопланетянин человек

Внимание! Время в таблицах - всемирное. Для получения местного времени необходимо прибавить поправку, которая равна 7 ч.

Смотрите также архив погоды в соседних городах и на ближайших метеорологических станциях:

Погода в Крапивино (Кемеровская область, Россия) (57 км)
Погода в Тисуле (Кемеровская область, Россия) (74 км)
Погода в Ненастной (Хакасия, Россия) (90 км)
Погода в Кемерово (Кемеровская область, Россия) (91 км)
Погода в Кемерово АМС (Кемеровская область, Россия) (94 км)
Погода в Барзасе (Кемеровская область, Россия) (103 км)
Погода в Шарыпово (Красноярский край, Россия) (105 км)
Погода в Ленинск-Кузнецком (Кемеровская область, Россия) (108 км)
Погода в Мариинске (Кемеровская область, Россия) (109 км)
Погода в Тяжине (Кемеровская область, Россия) (116 км)

Пояснения к столбцам:

Ветер - указаны скорость ветра в м/с - средняя за 10 мин, порывы в срок и между сроками (в фигурных скобках) и направление, откуда дует ветер: С - северный, СВ - северо-восточный, В - восточный, ЮВ - юго-восточный, Ю - южный, ЮЗ - юго-западный, З - западный, СЗ - северо-западный.
Видимость - горизонтальная дальность видимости в метрах или километрах. При видимости от 1 до 10 км при отсутствии осадков обычно наблюдается дымка, при ухудшении видимости до 1 км и менее - туман. В сухую погоду видимость может ухудшаться дымом, пылью или мглою.
Явления - указаны атмосферные явления, наблюдавшиеся в срок или в последний час перед сроком; фигурными скобками обозначены явления, наблюдавшиеся между сроками (за 1-3 часа до срока); квадратными скобками обозначены град или гололедные отложения с указанием их диаметра в мм.
Облачность - указаны через наклонную черту общая и нижняя облачность в баллах и высота нижней границы облаков в метрах; квадратными скобками обозначены формы облаков: Ci - перистые, Cs - перисто-слоистые, Cc - перисто-кучевые, Ac - высококучевые, As - высокослоистые, Sc - слоисто-кучевые, Ns - слоисто-дождевые, Cu - кучевые, Cb - кучево-дождевые. Подробнее классификацию облаков см. в Атласе облаков (PDF).
T - Температура воздуха - температура, измеренная на высоте 2 м над землей.
Td - Температура точки росы - температура, при понижении до которой содержащийся в воздухе водяной пар достигнет насыщения.
f - Относительная влажность воздуха - влажноcть воздуха, измеренная на высоте 2 м над землей.
Te - Эффективная температура - температура, которую ощущает одетый по сезону человек в тени. Характеристика душности погоды. При расчете учитывается влияние влажности воздуха и скорости ветра на теплоощущения человека.
Tes - Эффективная температура на солнце - температура, которую ощущает человек, с поправкой на солнечный нагрев. Характеристика знойности погоды. Зависит от высоты солнца над горизонтом, облачности и скорости ветра. Ночью, в пасмурную погоду, а также при ветре 12 м/с и более поправка равна нулю.
P - Атмосферное давление - приведенное к уровню моря атмосферное давление.
Po - Атмосферное давление - измеренное на уровне метеостанции атмосферное давление.
Tmin - Минимальная температура - минимум температуры воздуха на высоте 2 м над землей.
Tmax - Максимальная температура - максимум температуры воздуха на высоте 2 м над землей.
R - Количество осадков - Количество выпавших осадков за период времени, мм. При наведении курсора мыши на число - период времени, за который выпало указанное количество осадков.
R24 - Количество осадков - Количество выпавших осадков за 24 часа, мм.
S - Снежный покров - Высота снежного покрова, см. При наведении курсора мыши на число - состояние снежного покрова и степень покрытия местности в баллах.